(158906) = 2004 RS4

Discovered at Palomar on 2004-09-04 by NEAT.

Orbit

Orbit type: Main Belt

Note: WebGL enabled browser required.

epoch2024-03-31.0
epoch JD2460400.5
perihelion date2022-12-06.54100
perihelion JD2459920.04100
argument of perihelion (°)281.36128
ascending node (°)57.64288
inclination (°)7.07082
eccentricity0.1398624
perihelion distance (AU)2.0440724
Tisserand w.r.t. Jupiter3.5
ΔV w.r.t. Earth (km/sec)9.2
semimajor axis (AU)2.3764481
mean anomaly (°)129.26105
mean daily motion (°/day)0.26903660
aphelion distance (AU)2.709
period (years)3.66
P-vector [x]0.92730801
P-vector [y]-0.27706734
P-vector [z]-0.25166157
Q-vector [x]0.35956563
Q-vector [y]0.84618573
Q-vector [z]0.39329667
absolute magnitude16.26
phase slope0.15
uncertainty0
referenceMPEC 2024-E179
observations used685
oppositions16
arc length (days)8099
first opposition used2002
last opposition used2024
residual rms (arc-secs)0.70
perturbers coarse indicatorM-v
perturbers precise indicator003Ek
first observation date used2002-01-09.0
last observation date used2024-03-13.0
computer nameMPCLINUX
JD of orbit computation2456819.554899
perihelion JD uncertainty (days)1.7083E-04
argument of perihelion uncertainty (°)5.5600E-05
ascending node uncertainty (°)4.3102E-05
inclination uncertainty (°)7.0026E-06
eccentricity uncertainty 6.0115E-08
perihelion distance uncertainty (AU)1.3369E-07
Minimum Orbit Intersection Distances (in AU)
for orbit epoch: 2460200.5, reference: E2024-B63
Mercury1.64278
Venus1.31935
Earth1.04996
Mars0.67974
Jupiter2.66603
Saturn6.51731
Uranus15.7557
Neptune27.59

Observations

706 total observations over interval: 2002 01 09.22984 – 2024 03 13.120842
These data are available for download (format description).

Date (UT) J2000 RA J2000 Dec Magn Location Ref
2002 01 09.22984 06 21 47.26 +31 06 03.9 20.0   644 – Palomar Mountain/NEAT MPS 115771
2002 01 09.24051 06 21 46.54 +31 06 04.7 20.5   644 – Palomar Mountain/NEAT MPS 115771
2002 01 09.25050 06 21 45.84 +31 06 05.7 20.1   644 – Palomar Mountain/NEAT MPS 115771
2003 03 22.27517 13 30 46.10 -01 12 17.9 20.5   644 – Palomar Mountain/NEAT MPS 115297
2003 03 22.35754 13 30 42.08 -01 11 56.5 20.2   644 – Palomar Mountain/NEAT MPS 115297
2003 03 22.42343 13 30 38.81 -01 11 39.4 20.2   644 – Palomar Mountain/NEAT MPS 115297
2003 03 31.32859 13 22 56.25 -00 32 26.7 19.5 R 699 – Lowell Observatory-LONEOS MPS 115297
2003 03 31.34842 13 22 55.06 -00 32 21.8   699 – Lowell Observatory-LONEOS MPS 115297
2003 03 31.38569 13 22 52.90 -00 32 11.8   699 – Lowell Observatory-LONEOS MPS 115297
2003 03 31.40554 13 22 51.85 -00 32 06.9   699 – Lowell Observatory-LONEOS MPS 115297
2003 04 09.27386 13 14 16.76 +00 05 35.1 19.4   644 – Palomar Mountain/NEAT MPS 115297
2003 04 09.34465 13 14 12.42 +00 05 52.0 19.3   644 – Palomar Mountain/NEAT MPS 115297
2003 04 09.40817 13 14 08.53 +00 06 07.4 19.6   644 – Palomar Mountain/NEAT MPS 115297
2003 05 02.15012 12 53 19.29 +01 07 44.1 20.4 V 691 – Steward Observatory, Kitt Peak-Spacewatch MPS 115297
2003 05 02.18496 12 53 17.67 +01 07 46.7 20.3 V 691 – Steward Observatory, Kitt Peak-Spacewatch MPS 115297
2003 05 02.21181 12 53 16.40 +01 07 47.9 20.3 V 691 – Steward Observatory, Kitt Peak-Spacewatch MPS 115297
2004 07 16.36975 00 08 22.26 -10 29 33.8 18.8   704 – Lincoln Laboratory ETS, New Mexico MPS 114416
2004 07 16.38958 00 08 23.13 -10 29 34.9 18.9   704 – Lincoln Laboratory ETS, New Mexico MPS 114416
2004 07 16.40937 00 08 23.91 -10 29 33.5 19.2   704 – Lincoln Laboratory ETS, New Mexico MPS 114416
2004 08 26.67683 00 12 02.06 -12 29 21.9 19.0 R E12 – Siding Spring Survey MPS 113019
2004 08 26.68617 00 12 01.71 -12 29 25.9 18.5 R E12 – Siding Spring Survey MPS 113019
2004 08 26.69550 00 12 01.37 -12 29 27.9 17.9 R E12 – Siding Spring Survey MPS 113019
2004 08 26.70484 00 12 00.97 -12 29 30.2 20.0 R E12 – Siding Spring Survey MPS 113019
2004 09 04.28257 00 06 04.11 -13 13 13.2 17.8   644 – Palomar Mountain/NEAT MPS 112804
2004 09 04.34584 00 06 00.88 -13 13 32.0 17.6   644 – Palomar Mountain/NEAT MPS 112804
2004 09 04.40904 00 05 57.67 -13 13 50.4 17.9   644 – Palomar Mountain/NEAT MPS 112804
2004 09 06.35333 00 04 22.11 -13 23 14.7 17.8   644 – Palomar Mountain/NEAT MPS 113019
2004 09 06.37407 00 04 21.00 -13 23 20.5 17.7   644 – Palomar Mountain/NEAT MPS 113019
2004 09 06.40972 00 04 19.10 -13 23 30.6 17.6   644 – Palomar Mountain/NEAT MPS 113019
2004 09 07.23873 00 03 37.33 -13 27 25.3 18.5   704 – Lincoln Laboratory ETS, New Mexico MPS 112804
2004 09 07.23884 00 03 37.28 -13 27 24.5 18.4   704 – Lincoln Laboratory ETS, New Mexico MPS 112804
2004 09 07.25060 00 03 36.70 -13 27 27.6 18.4   704 – Lincoln Laboratory ETS, New Mexico MPS 112804
2004 09 07.25070 00 03 36.65 -13 27 27.7 18.6   704 – Lincoln Laboratory ETS, New Mexico MPS 112804
2004 09 07.26185 00 03 36.05 -13 27 32.0 18.7   704 – Lincoln Laboratory ETS, New Mexico MPS 112804
2004 09 07.26196 00 03 36.03 -13 27 30.8 18.9   704 – Lincoln Laboratory ETS, New Mexico MPS 112804
2004 09 07.27344 00 03 35.44 -13 27 33.9 18.6   704 – Lincoln Laboratory ETS, New Mexico MPS 112804
2004 09 07.27355 00 03 35.42 -13 27 34.2 19.1   704 – Lincoln Laboratory ETS, New Mexico MPS 112804
2004 09 07.28482 00 03 34.79 -13 27 37.3 18.6   704 – Lincoln Laboratory ETS, New Mexico MPS 112804
2004 09 07.28492 00 03 34.78 -13 27 37.3 19.2   704 – Lincoln Laboratory ETS, New Mexico MPS 112804
2004 09 15.25815 23 56 18.73 -14 00 51.5 17.8 R 699 – Lowell Observatory-LONEOS MPS 113019
2004 09 15.27276 23 56 17.87 -14 00 54.5   699 – Lowell Observatory-LONEOS MPS 113019
2004 09 15.28739 23 56 17.05 -14 00 57.9   699 – Lowell Observatory-LONEOS MPS 113019
2004 09 15.30198 23 56 16.12 -14 01 00.9   699 – Lowell Observatory-LONEOS MPS 113019
2004 09 21.24030 23 50 34.97 -14 18 38.3 19.4   704 – Lincoln Laboratory ETS, New Mexico MPS 114416
2004 09 21.25275 23 50 34.40 -14 18 42.9 19.4   704 – Lincoln Laboratory ETS, New Mexico MPS 114416
2004 09 21.27752 23 50 32.88 -14 18 45.6 19.6   704 – Lincoln Laboratory ETS, New Mexico MPS 114416
2004 09 21.28984 23 50 32.13 -14 18 47.7 19.0   704 – Lincoln Laboratory ETS, New Mexico MPS 114416
2004 10 03.31288 23 39 47.94 -14 29 30.9 18.1   644 – Palomar Mountain/NEAT MPS 115771
2004 10 03.33323 23 39 46.92 -14 29 30.1 18.0   644 – Palomar Mountain/NEAT MPS 115771
2004 10 03.36589 23 39 45.27 -14 29 28.3 18.2   644 – Palomar Mountain/NEAT MPS 115771
2004 10 04.30557 23 39 00.95 -14 28 47.3 18.1   644 – Palomar Mountain/NEAT MPS 117625
2004 10 04.30679 23 39 00.90 -14 28 47.0 18.1   644 – Palomar Mountain/NEAT MPS 117625
2004 10 04.32664 23 38 59.91 -14 28 45.9 17.9   644 – Palomar Mountain/NEAT MPS 117625
2004 10 04.32792 23 38 59.86 -14 28 45.9 18.1   644 – Palomar Mountain/NEAT MPS 117625
2004 10 04.35720 23 38 58.42 -14 28 44.0 18.2   644 – Palomar Mountain/NEAT MPS 117625
2004 10 04.35844 23 38 58.35 -14 28 44.2 18.0   644 – Palomar Mountain/NEAT MPS 117625
2004 10 06.20784 23 37 34.62 -14 26 41.6 19.5   704 – Lincoln Laboratory ETS, New Mexico MPS 115771
2004 10 06.21894 23 37 34.15 -14 26 40.1 19.7   704 – Lincoln Laboratory ETS, New Mexico MPS 115771
2004 10 06.23027 23 37 33.61 -14 26 39.1 19.5   704 – Lincoln Laboratory ETS, New Mexico MPS 115771
2004 10 06.24154 23 37 33.10 -14 26 38.9 19.2   704 – Lincoln Laboratory ETS, New Mexico MPS 115771
2004 10 06.25298 23 37 32.60 -14 26 37.2 19.0   704 – Lincoln Laboratory ETS, New Mexico MPS 115771
2004 10 10.23700 23 34 48.86 -14 19 09.0 18.3   644 – Palomar Mountain/NEAT MPS 116649
2004 10 10.25895 23 34 47.96 -14 19 05.6 18.2   644 – Palomar Mountain/NEAT MPS 116649
2004 10 10.27929 23 34 47.13 -14 19 02.9 18.2   644 – Palomar Mountain/NEAT MPS 116649
2004 10 20.14865 23 29 58.94 -13 43 33.5 18.9 R 703 – Catalina Sky Survey MPS 117625
2004 10 20.15656 23 29 58.71 -13 43 31.0 18.3 R 703 – Catalina Sky Survey MPS 117625
2004 10 20.16446 23 29 58.49 -13 43 28.4 18.7 R 703 – Catalina Sky Survey MPS 117625
2004 10 20.17235 23 29 58.32 -13 43 26.5 18.6 R 703 – Catalina Sky Survey MPS 117625
2004 11 11.06524 23 30 20.22 -11 13 22.0 18.8 R 699 – Lowell Observatory-LONEOS MPS 119852
2004 11 11.08552 23 30 20.58 -11 13 10.4   699 – Lowell Observatory-LONEOS MPS 119852
2004 11 11.10580 23 30 20.96 -11 12 59.1   699 – Lowell Observatory-LONEOS MPS 119852
2004 11 11.12608 23 30 21.29 -11 12 49.0   699 – Lowell Observatory-LONEOS MPS 119852
2006 01 26.32612 09 22 30.61 +26 38 30.4 20.2 V 703 – Catalina Sky Survey MPS 160424
2006 01 26.33240 09 22 30.18 +26 38 32.3 20.1 V 703 – Catalina Sky Survey MPS 160424
2006 01 26.33865 09 22 29.78 +26 38 34.2 20.1 V 703 – Catalina Sky Survey MPS 160424
2006 01 26.34494 09 22 29.31 +26 38 37.2 19.5 V 703 – Catalina Sky Survey MPS 160424
2007 04 14.41728 16 00 27.72 -18 34 13.9 19.2 V G96 – Mt. Lemmon Survey MPS 206893
2007 04 14.42319 16 00 27.54 -18 34 14.3 19.0 V G96 – Mt. Lemmon Survey MPS 206893
2007 04 14.42911 16 00 27.36 -18 34 14.3 19.1 V G96 – Mt. Lemmon Survey MPS 206893
2007 04 14.43505 16 00 27.10 -18 34 15.2 19.0 V G96 – Mt. Lemmon Survey MPS 206893
2007 05 10.37984 15 40 01.79 -18 42 12.0 19.6 V 691 – Steward Observatory, Kitt Peak-Spacewatch MPS 208905
2007 05 10.39747 15 40 00.64 -18 42 11.6 19.6 V 691 – Steward Observatory, Kitt Peak-Spacewatch MPS 208905
2007 05 10.41510 15 39 59.49 -18 42 11.2 19.7 V 691 – Steward Observatory, Kitt Peak-Spacewatch MPS 208905
2007 05 13.30111 15 36 55.44 -18 41 16.8 18.9   704 – Lincoln Laboratory ETS, New Mexico MPS 208905
2007 05 13.31056 15 36 54.70 -18 41 17.9 19.2   704 – Lincoln Laboratory ETS, New Mexico MPS 208905
2007 05 13.31990 15 36 54.14 -18 41 15.7 19.2   704 – Lincoln Laboratory ETS, New Mexico MPS 208905
2007 05 13.32923 15 36 53.60 -18 41 16.2 19.3   704 – Lincoln Laboratory ETS, New Mexico MPS 208905
2007 05 13.33860 15 36 52.92 -18 41 15.8 19.3   704 – Lincoln Laboratory ETS, New Mexico MPS 208905
2007 05 14.35075 15 35 47.09 -18 40 52.6 20.3   704 – Lincoln Laboratory ETS, New Mexico MPS 208905
